TimeIST,TemperatureF,Dew PointF,Humidity,Sea Level PressureIn,VisibilityMPH,Wind Direction,Wind SpeedMPH,Gust SpeedMPH,PrecipitationIn,Events,Conditions,WindDirDegrees,DateUTC
12:10 AM,73.4,41.0,31,29.98,3.1,Calm,Calm,-,N/A,,Haze,0,2013-03-05 18:40:00
1:10 AM,75.2,39.2,27,29.98,3.1,Calm,Calm,-,N/A,,Haze,0,2013-03-05 19:40:00
2:10 AM,73.4,39.2,29,29.98,3.1,Calm,Calm,-,N/A,,Haze,0,2013-03-05 20:40:00
2:30 AM,63,48,48,29.96,2,North,2.3,,,,Haze,0,2013-03-05 21:00:00
3:10 AM,73.4,41.0,31,29.98,2.5,Calm,Calm,-,N/A,,Haze,0,2013-03-05 21:40:00
4:10 AM,68.0,41.0,37,29.95,2.5,Calm,Calm,-,N/A,,Haze,0,2013-03-05 22:40:00
5:10 AM,66.2,41.0,40,29.95,2.5,Calm,Calm,-,N/A,,Haze,0,2013-03-05 23:40:00
5:30 AM,61,45,45,29.96,2,Calm,Calm,,,,Haze,,2013-03-06 00:00:00
6:10 AM,66.2,39.2,37,29.98,2.5,Calm,Calm,-,N/A,,Haze,0,2013-03-06 00:40:00
8:10 AM,71.6,44.6,38,30.04,3.7,East,3.5,-,N/A,,Unknown,90,2013-03-06 02:40:00
8:30 AM,73,44,24,30.04,2,SE,3.5,,,,,140,2013-03-06 03:00:00
9:10 AM,77.0,44.6,32,30.06,2.5,Calm,Calm,-,N/A,,Haze,0,2013-03-06 03:40:00
10:10 AM,86.0,42.8,22,30.06,2.5,East,4.6,-,N/A,,Haze,80,2013-03-06 04:40:00
11:30 AM,88,44,13,30.00,2,Calm,Calm,,,,Haze,,2013-03-06 06:00:00
12:10 PM,93.2,41.0,16,30.04,3.1,NNW,3.5,-,N/A,,Haze,330,2013-03-06 06:40:00
1:10 PM,96.8,37.4,13,30.01,3.1,NE,2.3,-,N/A,,Haze,50,2013-03-06 07:40:00
2:10 PM,98.6,35.6,11,29.95,3.7,South,2.3,-,N/A,,Unknown,170,2013-03-06 08:40:00
2:30 PM,95,40,8,29.85,2,East,4.6,,,,,90,2013-03-06 09:00:00
3:10 PM,98.6,32.0,10,29.95,3.7,West,2.3,-,N/A,,Unknown,260,2013-03-06 09:40:00
5:10 PM,98.6,33.8,10,29.92,3.7,NE,2.3,-,N/A,,Unknown,40,2013-03-06 11:40:00
5:30 PM,92,44,11,29.85,2,East,2.3,,,,,90,2013-03-06 12:00:00
6:10 PM,93.2,41.0,16,29.92,3.7,ESE,3.5,-,N/A,,Unknown,110,2013-03-06 12:40:00
7:10 PM,86.0,39.2,19,29.95,3.1,Calm,Calm,-,N/A,,Haze,0,2013-03-06 13:40:00
8:10 PM,-9999,-9999,N/A,29.98,-9999.0,West,4.6,-,N/A,,Haze,260,2013-03-06 14:40:00
8:30 PM,72,48,32,29.95,2,Calm,Calm,,,,Haze,,2013-03-06 15:00:00
9:10 PM,78.8,37.4,23,29.98,3.1,Calm,Calm,-,N/A,,Haze,0,2013-03-06 15:40:00
10:10 PM,80.6,41.0,24,29.98,3.1,Calm,Calm,-,N/A,,Haze,0,2013-03-06 16:40:00
11:10 PM,77.0,41.0,28,30.01,3.1,Calm,Calm,-,N/A,,Haze,0,2013-03-06 17:40:00
11:30 PM,69,48,37,29.98,2,North,3.5,,,,Haze,0,2013-03-06 18:00:00